Location: Étouvelles
(49.5207°N, 3.5808°E)
Time: 10:17:34
(UTC+00:00)

MINOTAUR 4 R/B - Pass Details

Date: 03 February 2023
Orbit: 448 x 453 km, 98.0° (Epoch: 23 March)

Event Time Altitude Azimuth Distance (km) Brightness Sun altitude
Exits shadow 18:47:36 67° 20° (NNE) 493 3.9 -20.2°
Maximum altitude 18:48:01 88° 102° (ESE) 456 3.8 -20.2°
Drops below altitude 10° 18:51:24 10° 194° (SSW) 1,573 6.8 -20.8°
Sets 18:53:24 0° 195° (SSW) 2,440 7.8 -21.1°
